Frederike Selmer — V7QY8 — position and weather

sailwx.info

Track history (hours):
 
Tides and Currents Weather Stations Pressure Air Temp Water Temp Dewpoint Dewpoint Depression Visibility Wind Speed Wind Dir Waves Ship Positions

Frederike Selmer

Last reported at 2014-Nov-23 10:22 UTC. Time now 2014-Nov-23 16:14 UTC.
Position N 22°34' E 120°20'.

Length 188 m; draft 10.7 m.

Type: Cargo ship. MMSI: 538090377.

Date/timePositionNaut miles runAvg speedWind from/ knotsBaromVisibWave heightAir tempDewpointWater temp
2014-Nov-23 10:22N 22°34' E 120°20'0 0.0
2014-Nov-23 09:28N 22°34' E 120°20'0 0.0
2014-Nov-23 08:22N 22°34' E 120°20'0 0.0
2014-Nov-23 07:28N 22°34' E 120°20'0 0.0
2014-Nov-23 03:25N 22°34' E 120°20'0 0.0
2014-Nov-23 02:13N 22°34' E 120°20'0 0.1
2014-Nov-23 01:25N 22°34' E 120°20'0 0.0
2014-Nov-23 00:33N 22°34' E 120°20'3 3.4
2014-Nov-22 23:34N 22°33' E 120°16'3 2.4
2014-Nov-22 22:29N 22°30' E 120°15'0 0.0
2014-Nov-22 21:29N 22°30' E 120°15'0 0.1
2014-Nov-22 20:29N 22°30' E 120°15'0 0.0
2014-Nov-22 19:23N 22°30' E 120°15'0 0.1
2014-Nov-22 18:29N 22°30' E 120°15'0 0.0
2014-Nov-22 17:23N 22°30' E 120°15'0 0.0
2014-Nov-22 16:29N 22°30' E 120°15'0 0.0
2014-Nov-22 15:17N 22°30' E 120°15'0 0.0
2014-Nov-22 14:11N 22°30' E 120°15'1 0.1
2014-Nov-22 10:25N 22°31' E 120°15'8 9.1
2014-Nov-22 09:33N 22°37' E 120°10'1111.4
2014-Nov-22 08:33N 22°47' E 120°04'51510.4
2014-Nov-20 07:13N 31°06' E 122°31'6 9.2
2014-Nov-20 06:33N 31°06' E 122°24'1312.8
2014-Nov-20 05:33N 31°11' E 122°10'1212.4
2014-Nov-20 04:34N 31°15' E 121°57'1111.3
2014-Nov-20 03:34N 31°19' E 121°44'8 8.2
2014-Nov-20 02:34N 31°23' E 121°36'8 7.7
2014-Nov-20 01:34N 31°27' E 121°28'9 8.8
2014-Nov-20 00:34N 31°33' E 121°20'1211.9
2014-Nov-19 23:33N 31°41' E 121°10'1211.6
2014-Nov-19 22:33N 31°47' E 120°59'2 1.5
2014-Nov-19 21:31N 31°46' E 120°57'0 0.0
2014-Nov-19 20:31N 31°46' E 120°57'0 0.0
2014-Nov-19 19:31N 31°46' E 120°57'0 0.0
2014-Nov-19 18:31N 31°46' E 120°57'0 0.0
2014-Nov-19 17:31N 31°46' E 120°57'0 0.0
2014-Nov-19 16:31N 31°46' E 120°57'0 0.0
2014-Nov-19 15:31N 31°46' E 120°57'0 0.0
2014-Nov-19 14:31N 31°46' E 120°57'0 0.0
2014-Nov-19 13:28N 31°46' E 120°57'0 0.0
2014-Nov-19 12:31N 31°46' E 120°57'0 0.0
2014-Nov-19 11:31N 31°46' E 120°57'0 0.0
2014-Nov-19 10:31N 31°46' E 120°57'0 0.0
2014-Nov-19 09:28N 31°46' E 120°57'0 0.0
2014-Nov-19 08:28N 31°46' E 120°57'0 0.0
2014-Nov-19 07:31N 31°46' E 120°57'0 0.0
2014-Nov-19 06:22N 31°46' E 120°57'0 0.0
2014-Nov-19 05:28N 31°46' E 120°57'0 0.0
2014-Nov-19 04:31N 31°46' E 120°57'0 0.0
2014-Nov-19 03:31N 31°46' E 120°57'0 0.0
2014-Nov-19 02:31N 31°46' E 120°57'0 0.0
2014-Nov-19 01:31N 31°46' E 120°57'0 0.0
2014-Nov-19 00:31N 31°46' E 120°57'0 0.0
2014-Nov-18 23:31N 31°46' E 120°57'0 0.0
2014-Nov-18 22:31N 31°46' E 120°57'0 0.0
2014-Nov-18 21:31N 31°46' E 120°57'0 0.0
2014-Nov-18 20:31N 31°46' E 120°57'0 0.0
2014-Nov-18 19:31N 31°46' E 120°57'0 0.0
2014-Nov-18 18:31N 31°46' E 120°57'0 0.0
2014-Nov-18 17:25N 31°46' E 120°57'0 0.0
2014-Nov-18 16:28N 31°46' E 120°57'0 0.0
2014-Nov-18 15:31N 31°46' E 120°57'0 0.0
2014-Nov-18 14:31N 31°46' E 120°57'0 0.0
2014-Nov-18 13:31N 31°46' E 120°57'0 0.0
2014-Nov-18 12:28N 31°46' E 120°57'0 0.0
2014-Nov-18 11:28N 31°46' E 120°57'0 0.0
2014-Nov-18 10:31N 31°46' E 120°57'0 0.3
2014-Nov-18 09:32N 31°46' E 120°57'3 3.6
2014-Nov-18 08:33N 31°47' E 121°01'2 1.5
2014-Nov-18 07:33N 31°47' E 121°03'0 0.1
2014-Nov-18 06:33N 31°47' E 121°03'1010.4
2014-Nov-18 05:33N 31°40' E 121°12'1211.8
2014-Nov-18 04:33N 31°32' E 121°22'1010.2
2014-Nov-18 03:33N 31°25' E 121°31'9 8.8
2014-Nov-18 02:33N 31°21' E 121°40'1111.4
2014-Nov-18 01:33N 31°16' E 121°52'1211.7
2014-Nov-18 00:33N 31°14' E 122°06'1211.7
2014-Nov-17 23:33N 31°07' E 122°17'  
Track history (hours):
 
Tides and Currents Weather Stations Pressure Air Temp Water Temp Dewpoint Dewpoint Depression Visibility Wind Speed Wind Dir Waves Ship Positions

Frederike Selmer

Last reported at 2014-Nov-23 10:22 UTC. Time now 2014-Nov-23 16:14 UTC.
Position N 22°34' E 120°20'.

Length 188 m; draft 10.7 m.

Type: Cargo ship. MMSI: 538090377.

Date/timePositionNaut miles runAvg speedWind from/ knotsBaromVisibWave heightAir tempDewpointWater temp
2014-Nov-23 10:22N 22°34' E 120°20'0 0.0
2014-Nov-23 09:28N 22°34' E 120°20'0 0.0
2014-Nov-23 08:22N 22°34' E 120°20'0 0.0
2014-Nov-23 07:28N 22°34' E 120°20'0 0.0
2014-Nov-23 03:25N 22°34' E 120°20'0 0.0
2014-Nov-23 02:13N 22°34' E 120°20'0 0.1
2014-Nov-23 01:25N 22°34' E 120°20'0 0.0
2014-Nov-23 00:33N 22°34' E 120°20'3 3.4
2014-Nov-22 23:34N 22°33' E 120°16'3 2.4
2014-Nov-22 22:29N 22°30' E 120°15'0 0.0
2014-Nov-22 21:29N 22°30' E 120°15'0 0.1
2014-Nov-22 20:29N 22°30' E 120°15'0 0.0
2014-Nov-22 19:23N 22°30' E 120°15'0 0.1
2014-Nov-22 18:29N 22°30' E 120°15'0 0.0
2014-Nov-22 17:23N 22°30' E 120°15'0 0.0
2014-Nov-22 16:29N 22°30' E 120°15'0 0.0
2014-Nov-22 15:17N 22°30' E 120°15'0 0.0
2014-Nov-22 14:11N 22°30' E 120°15'1 0.1
2014-Nov-22 10:25N 22°31' E 120°15'8 9.1
2014-Nov-22 09:33N 22°37' E 120°10'1111.4
2014-Nov-22 08:33N 22°47' E 120°04'51510.4
2014-Nov-20 07:13N 31°06' E 122°31'6 9.2
2014-Nov-20 06:33N 31°06' E 122°24'1312.8
2014-Nov-20 05:33N 31°11' E 122°10'1212.4
2014-Nov-20 04:34N 31°15' E 121°57'1111.3
2014-Nov-20 03:34N 31°19' E 121°44'8 8.2
2014-Nov-20 02:34N 31°23' E 121°36'8 7.7
2014-Nov-20 01:34N 31°27' E 121°28'9 8.8
2014-Nov-20 00:34N 31°33' E 121°20'1211.9
2014-Nov-19 23:33N 31°41' E 121°10'1211.6
2014-Nov-19 22:33N 31°47' E 120°59'2 1.5
2014-Nov-19 21:31N 31°46' E 120°57'0 0.0
2014-Nov-19 20:31N 31°46' E 120°57'0 0.0
2014-Nov-19 19:31N 31°46' E 120°57'0 0.0
2014-Nov-19 18:31N 31°46' E 120°57'0 0.0
2014-Nov-19 17:31N 31°46' E 120°57'0 0.0
2014-Nov-19 16:31N 31°46' E 120°57'0 0.0
2014-Nov-19 15:31N 31°46' E 120°57'0 0.0
2014-Nov-19 14:31N 31°46' E 120°57'0 0.0
2014-Nov-19 13:28N 31°46' E 120°57'0 0.0
2014-Nov-19 12:31N 31°46' E 120°57'0 0.0
2014-Nov-19 11:31N 31°46' E 120°57'0 0.0
2014-Nov-19 10:31N 31°46' E 120°57'0 0.0
2014-Nov-19 09:28N 31°46' E 120°57'0 0.0
2014-Nov-19 08:28N 31°46' E 120°57'0 0.0
2014-Nov-19 07:31N 31°46' E 120°57'0 0.0
2014-Nov-19 06:22N 31°46' E 120°57'0 0.0
2014-Nov-19 05:28N 31°46' E 120°57'0 0.0
2014-Nov-19 04:31N 31°46' E 120°57'0 0.0
2014-Nov-19 03:31N 31°46' E 120°57'0 0.0
2014-Nov-19 02:31N 31°46' E 120°57'0 0.0
2014-Nov-19 01:31N 31°46' E 120°57'0 0.0
2014-Nov-19 00:31N 31°46' E 120°57'0 0.0
2014-Nov-18 23:31N 31°46' E 120°57'0 0.0
2014-Nov-18 22:31N 31°46' E 120°57'0 0.0
2014-Nov-18 21:31N 31°46' E 120°57'0 0.0
2014-Nov-18 20:31N 31°46' E 120°57'0 0.0
2014-Nov-18 19:31N 31°46' E 120°57'0 0.0
2014-Nov-18 18:31N 31°46' E 120°57'0 0.0
2014-Nov-18 17:25N 31°46' E 120°57'0 0.0
2014-Nov-18 16:28N 31°46' E 120°57'0 0.0
2014-Nov-18 15:31N 31°46' E 120°57'0 0.0
2014-Nov-18 14:31N 31°46' E 120°57'0 0.0
2014-Nov-18 13:31N 31°46' E 120°57'0 0.0
2014-Nov-18 12:28N 31°46' E 120°57'0 0.0
2014-Nov-18 11:28N 31°46' E 120°57'0 0.0
2014-Nov-18 10:31N 31°46' E 120°57'0 0.3
2014-Nov-18 09:32N 31°46' E 120°57'3 3.6
2014-Nov-18 08:33N 31°47' E 121°01'2 1.5
2014-Nov-18 07:33N 31°47' E 121°03'0 0.1
2014-Nov-18 06:33N 31°47' E 121°03'1010.4
2014-Nov-18 05:33N 31°40' E 121°12'1211.8
2014-Nov-18 04:33N 31°32' E 121°22'1010.2
2014-Nov-18 03:33N 31°25' E 121°31'9 8.8
2014-Nov-18 02:33N 31°21' E 121°40'1111.4
2014-Nov-18 01:33N 31°16' E 121°52'1211.7
2014-Nov-18 00:33N 31°14' E 122°06'1211.7
2014-Nov-17 23:33N 31°07' E 122°17'  

Dump ship's entire track history